Погода в Александровской

Россия / Кабардино-Балкарская Республика     43°28′43″N   44°04′01″E
темп.,
°C
ветер,
м/с
пор.,
м/с
влажн.,
%
обл.,
%
осадки,
мм/ч
давл.,
гПа
погр.,
м
23 апреля, пт
пт2300:00+10ссв1292100 2.6 1022105
03:00+10юз1295100 5.1 1023114
06:00+10зюз1294100 4.9 1025127
09:00+13зсз3568100 6.1 1025897
12:00+18сз12455 0.0 10231675
15:00+19св224111 0.0 10221861
18:00+17вюв22555 0.0 102127
21:00+12ююв226193 0.0 102117
24 апреля, сб
сб2400:00+11ю3369100 0.0 101935
03:00+11зюз1166100 0.0 101910
06:00+11юз1170100 0.0 102012
09:00+15с115794 0.0 1019468
12:00+19ссв32475 0.0 10181354
15:00+20ссв324590 0.0 10181683
18:00+17ссв3459100 0.0 1019100
21:00+15ссз1164100 0.0 102012
25 апреля, вс
вс2500:00+14сз1165100 0.0 102011
03:00+14ссз2266100 0.0 102029
06:00+12сз3477100 0.0 1020202
09:00+14ссв447070 0.0 1020922
12:00+15св4470100 0.1 1019874
15:00+16всв2361100 0.1 10171112
18:00+15ссз237394 0.0 1015114
21:00+14сз3475100 0.0 1015127
26 апреля, пн
пн2600:00+13зсз2373100 0.0 1014160
03:00+10ссз3477100 0.0 1014282
06:00+10сз1281100 0.0 1015105
09:00+13ссв2167100 0.0 1014659
12:00+16с2259100 0.0 10131118
15:00+17ссв3257100 0.0 10131338
18:00+14с3573100 0.0 1014216
21:00+11с4795100 3.1 1017413
27 апреля, вт
вт2700:00+10ссз2395100 4.2 1017289
03:00+10с3496100 4.7 1017281
06:00+10ссв3496100 0.8 1017307
09:00+10св2395100 1.8 1019311
12:00+9св3393100 0.4 1019332
15:00+10всв2292100 0.4 1018316
18:00+10сз0092100 0.0 1017133
21:00+10юв1193100 0.0 101833